Fortuna, CA

3:08 AM PDT on September 18, 2019 (GMT -0700)
Rohnerville

Weather History for KFOT - July, 2019

Change the Weather History Date:

Tuesday, July 16, 2019

  Actual Average (KEKA) Record (KEKA)
Temperature  
Mean Temperature 62 °F 58 °F  
Max Temperature 66 °F 63 °F 73 °F (1888)
Min Temperature 57 °F 52 °F 46 °F (1887)
Degree Days  
Heating Degree Days 4 7  
Month to date heating degree days 123  
Since 1 June heating degree days 389  
Since 1 July heating degree days 123  
Cooling Degree Days 0 0  
Month to date cooling degree days 0  
Year to date cooling degree days 0  
Since 1 June cooling degree days 0  
Growing Degree Days 12 (Base 50)    
Moisture  
Dew Point 59 °F    
Average Humidity 92    
Maximum Humidity 100    
Minimum Humidity 73    
Precipitation  
Precipitation 0.00 in 0.00 in 0.83 in (1991)
Month to date precipitation 0.11  
Year to date precipitation 23.39  
Snow  
Snow 0.00 in 0.00 in - ()
Month to date snowfall 0.0  
Since 1 June snowfall 0.0  
Since 1 July snowfall 0.0  
Snow Depth -    
Sea Level Pressure  
Sea Level Pressure 30.04 in    
Wind  
Wind Speed 9 mph (NW)    
Max Wind Speed 20 mph    
Max Gust Speed 23 mph    
Visibility 6 miles    
Events      
T = Trace of Precipitation, MM = Missing Value Source: NWS Daily Summary

Daily Weather History Graph

Daily Weather History Graph

Search for Another Location

Airport or City:

Astronomy

Jul. 16, 2019 Rise Set
Actual Time 5:59 AM PDT 8:45 PM PDT
Civil Twilight 5:27 AM PDT 9:17 PM PDT
Nautical Twilight 4:46 AM PDT 9:57 PM PDT
Astronomical Twilight 4:00 AM PDT 10:43 PM PDT
Moon 8:55 PM PDT (7/16) 5:42 AM PDT (7/16)
Length of Visible Light 15h 50m
Length of Day
14h 45m
Full, 100% of the Moon is Illuminated
Jul 16
Full
Jul 16
Full
Jul 24
Last Quarter
Jul 31
New
Aug 7
First Quarter

Hourly Weather History & Observations

Time (PDT) Temp. Dew Point Humidity Pressure Visibility Wind Dir Wind Speed Gust Speed Precip Events Conditions
12:10 AM 60.8 °F 59.0 °F 94% 30.07 in 10.0 mi West 4.6 mph - N/A   Overcast
12:30 AM 60.8 °F 59.0 °F 94% 30.07 in 10.0 mi WNW 4.6 mph - N/A   Overcast
12:50 AM 60.8 °F 59.0 °F 94% 30.06 in 10.0 mi WNW 5.8 mph - N/A   Overcast
1:10 AM 60.8 °F 59.0 °F 94% 30.06 in 10.0 mi WNW 5.8 mph - N/A   Overcast
1:30 AM 59.0 °F 59.0 °F 100% 30.06 in 2.5 mi WNW 8.1 mph - N/A   Overcast
1:50 AM 59.0 °F 59.0 °F 100% 30.05 in 1.8 mi WNW 6.9 mph - N/A   Overcast
2:10 AM 59.0 °F 59.0 °F 100% 30.05 in 0.2 mi West 6.9 mph - N/A   Overcast
2:30 AM 59.0 °F 59.0 °F 100% 30.04 in 0.2 mi West 8.1 mph - N/A   Overcast
2:50 AM 59.0 °F 59.0 °F 100% 30.03 in 0.2 mi WNW 8.1 mph - N/A   Overcast
3:10 AM 59.0 °F 59.0 °F 100% 30.03 in 0.2 mi WNW 6.9 mph - N/A   Overcast
3:30 AM 59.0 °F 59.0 °F 100% 30.03 in 0.2 mi WNW 5.8 mph - N/A   Overcast
3:50 AM 59.0 °F 59.0 °F 100% 30.03 in 0.2 mi WNW 6.9 mph - N/A   Overcast
4:10 AM 59.0 °F 59.0 °F 100% 30.02 in 0.2 mi WNW 6.9 mph - N/A   Overcast
4:30 AM 59.0 °F 59.0 °F 100% 30.02 in 0.2 mi West 8.1 mph - N/A   Overcast
4:50 AM 59.0 °F 59.0 °F 100% 30.02 in 0.2 mi West 8.1 mph - N/A   Overcast
5:10 AM 59.0 °F 59.0 °F 100% 30.02 in 0.2 mi West 8.1 mph - N/A   Overcast
5:30 AM 59.0 °F 59.0 °F 100% 30.03 in 0.2 mi WNW 8.1 mph - N/A   Overcast
5:50 AM 59.0 °F 59.0 °F 100% 30.03 in 0.2 mi West 8.1 mph - N/A   Overcast
6:10 AM 59.0 °F 59.0 °F 100% 30.03 in 0.2 mi WNW 8.1 mph - N/A   Overcast
6:30 AM 59.0 °F 59.0 °F 100% 30.04 in 0.2 mi WNW 10.4 mph - N/A   Overcast
6:50 AM 59.0 °F 59.0 °F 100% 30.04 in 0.2 mi WNW 10.4 mph - N/A   Overcast
7:10 AM 59.0 °F 59.0 °F 100% 30.04 in 0.2 mi WNW 9.2 mph - N/A   Overcast
7:30 AM 59.0 °F 59.0 °F 100% 30.03 in 0.2 mi WNW 9.2 mph - N/A   Overcast
7:50 AM 59.0 °F 59.0 °F 100% 30.03 in 0.2 mi WNW 9.2 mph - N/A   Overcast
8:10 AM 59.0 °F 59.0 °F 100% 30.03 in 0.2 mi WNW 9.2 mph - N/A   Overcast
8:30 AM 59.0 °F 59.0 °F 100% 30.04 in 0.8 mi WNW 8.1 mph - N/A   Overcast
8:50 AM 59.0 °F 59.0 °F 100% 30.04 in 3.0 mi WNW 10.4 mph - N/A   Mostly Cloudy
9:10 AM 59.0 °F 59.0 °F 100% 30.04 in 3.0 mi NW 11.5 mph - N/A   Mostly Cloudy
9:30 AM 59.0 °F 59.0 °F 100% 30.04 in 5.0 mi NW 11.5 mph - N/A   Mostly Cloudy
9:50 AM 59.0 °F 59.0 °F 100% 30.04 in 5.0 mi NW 11.5 mph - N/A   Mostly Cloudy
10:10 AM 60.8 °F 60.8 °F 100% 30.04 in 6.0 mi NNW 13.8 mph 17.3 mph N/A   Mostly Cloudy
10:30 AM 60.8 °F 60.8 °F 100% 30.04 in 3.0 mi WNW 10.4 mph - N/A   Scattered Clouds
10:50 AM 60.8 °F 60.8 °F 100% 30.04 in 2.0 mi WNW 10.4 mph - N/A   Scattered Clouds
11:10 AM 62.6 °F 60.8 °F 94% 30.04 in 5.0 mi NW 16.1 mph - N/A   Partly Cloudy
11:30 AM 62.6 °F 62.6 °F 100% 30.04 in 5.0 mi NW 12.7 mph 16.1 mph N/A   Partly Cloudy
11:50 AM 62.6 °F 60.8 °F 94% 30.05 in 5.0 mi NNW 16.1 mph 20.7 mph N/A   Partly Cloudy
12:10 PM 62.6 °F 59.0 °F 88% 30.05 in 8.0 mi NW 15.0 mph - N/A   Scattered Clouds
12:30 PM 64.4 °F 60.8 °F 88% 30.05 in 6.0 mi NNW 15.0 mph 18.4 mph N/A   Scattered Clouds
12:50 PM 64.4 °F 60.8 °F 88% 30.05 in 3.0 mi NW 16.1 mph - N/A   Partly Cloudy
1:10 PM 62.6 °F 60.8 °F 94% 30.05 in 2.5 mi NW 13.8 mph - N/A   Clear
1:30 PM 64.4 °F 59.0 °F 83% 30.05 in 7.0 mi NW 13.8 mph - N/A   Scattered Clouds
1:50 PM 62.6 °F 59.0 °F 88% 30.06 in 5.0 mi WNW 13.8 mph - N/A   Scattered Clouds
2:10 PM 62.6 °F 59.0 °F 88% 30.05 in 10.0 mi NW 16.1 mph - N/A   Scattered Clouds
2:30 PM 62.6 °F 59.0 °F 88% 30.05 in 10.0 mi NNW 12.7 mph 18.4 mph N/A   Mostly Cloudy
2:50 PM 64.4 °F 59.0 °F 83% 30.04 in 10.0 mi NW 13.8 mph 18.4 mph N/A   Overcast
3:10 PM 64.4 °F 59.0 °F 83% 30.04 in 10.0 mi NW 15.0 mph - N/A   Overcast
3:30 PM 66.2 °F 59.0 °F 78% 30.04 in 10.0 mi NW 15.0 mph 19.6 mph N/A   Overcast
3:50 PM 64.4 °F 59.0 °F 83% 30.04 in 10.0 mi NW 15.0 mph 18.4 mph N/A   Overcast
4:10 PM 64.4 °F 59.0 °F 83% 30.04 in 10.0 mi NW 12.7 mph - N/A   Overcast
4:30 PM 66.2 °F 57.2 °F 73% 30.03 in 10.0 mi NNW 10.4 mph 18.4 mph N/A   Overcast
4:50 PM 66.2 °F 57.2 °F 73% 30.04 in 10.0 mi NNW 16.1 mph 23.0 mph N/A   Overcast
5:10 PM 64.4 °F 57.2 °F 77% 30.03 in 10.0 mi NW 19.6 mph 23.0 mph N/A   Overcast
5:30 PM 64.4 °F 57.2 °F 77% 30.03 in 10.0 mi NW 13.8 mph 19.6 mph N/A   Overcast
5:50 PM 64.4 °F 57.2 °F 77% 30.03 in 10.0 mi NNW 16.1 mph 19.6 mph N/A   Overcast
6:10 PM 64.4 °F 57.2 °F 77% 30.03 in 10.0 mi NW 12.7 mph 20.7 mph N/A   Overcast
6:30 PM 64.4 °F 57.2 °F 77% 30.03 in 10.0 mi NW 12.7 mph 18.4 mph N/A   Overcast
6:50 PM 64.4 °F 57.2 °F 77% 30.03 in 10.0 mi NW 12.7 mph - N/A   Overcast
7:10 PM 64.4 °F 57.2 °F 77% 30.03 in 10.0 mi NNW 12.7 mph - N/A   Overcast
7:30 PM 64.4 °F 55.4 °F 73% 30.03 in 10.0 mi NNW 15.0 mph 21.9 mph N/A   Overcast
7:50 PM 62.6 °F 57.2 °F 82% 30.03 in 10.0 mi NW 12.7 mph 18.4 mph N/A   Overcast
8:10 PM 60.8 °F 57.2 °F 88% 30.03 in 10.0 mi NNW 13.8 mph - N/A   Overcast
8:30 PM 60.8 °F 57.2 °F 88% 30.03 in 10.0 mi NNW 12.7 mph 19.6 mph N/A   Overcast
8:50 PM 60.8 °F 57.2 °F 88% 30.03 in 10.0 mi NNW 11.5 mph - N/A   Overcast
9:10 PM 60.8 °F 57.2 °F 88% 30.04 in 10.0 mi NW 10.4 mph - N/A   Overcast
9:30 PM 59.0 °F 57.2 °F 94% 30.04 in 10.0 mi NW 9.2 mph - N/A   Overcast
9:50 PM 59.0 °F 57.2 °F 94% 30.04 in 10.0 mi WNW 9.2 mph - N/A   Overcast
10:10 PM 59.0 °F 57.2 °F 94% 30.04 in 10.0 mi WNW 9.2 mph - N/A   Overcast
10:30 PM 59.0 °F 57.2 °F 94% 30.04 in 10.0 mi WNW 9.2 mph - N/A   Overcast
10:50 PM 59.0 °F 57.2 °F 94% 30.04 in 10.0 mi WNW 8.1 mph - N/A   Overcast
11:10 PM 59.0 °F 57.2 °F 94% 30.03 in 10.0 mi WNW 8.1 mph - N/A   Overcast
11:30 PM 57.2 °F 57.2 °F 100% 30.03 in 10.0 mi WNW 8.1 mph - N/A   Overcast
11:50 PM 57.2 °F 57.2 °F 100% 30.03 in 10.0 mi WNW 10.4 mph - N/A   Mostly Cloudy